FENGYUN 1C DEB, 29921

Orbit data source: Space-Track

FENGYUN 1C DEB, 29921 is space debris in SSO originally from a launch on Mon, 10 May 1999 UTC launched from the Taiyaun Space Center, China (TSC). Fengyun 1C debris stems from the Chinese weather satellite Fengyun-1C, which was intentionally destroyed by a Chinese anti-satellite missile in 2007. This event dramatically increased the amount of space debris, with thousands of trackable fragments posing hazards to satellites and human spaceflight. The Fengyun 1C debris cloud has become a focal point in discussions about space sustainability and the need for international regulations to prevent the creation of new debris.

Loading next visibility...
Identifier
29921, 1999-025HT
Orbit
SSO
Country
Flag of CNCN / PRC
Related business
Manufacturer
Unknown
Mission
Spacecraft
Bus & Motor
Unknown
Mass
Unknown
Launch date (UTC)
1999-05-10 (27 years ago)
Launch vehicle
Unknown
Launch site
Taiyaun Space Center, China (TSC)
Object type
Payload
Rocket body
Debris
Shape & HBR
Unknown shape, 0.1 m
Radar Cross Section
Medium (>0.1 m² and <1 m²)

Expand to show TLE details & history
Last TLE update: 20 hours ago

TLE from 20 hours ago
0 FENGYUN 1C DEB
1 29921U 99025HT  26254.98021307  .00000183  00000-0  13430-3 0  9993
2 29921  98.7898 258.3609 0045991  22.2447  32.5228 14.06940033  7184
Epoch: 2026-09-11T23:31Z
TLE epoch observation values (Epoch: 2026-09-11T23:31:30.409Z)
Latitude
54.2011°
Longitude
-97.82565°
Altitude
850.677 km
Speed
7.447 km/s
True Right ascension
16h 24m 11s
True Declination
54° 02' 24"
Sunlit
Object was in daylight at epoch
Visualization orbit readout
Latitude
Unknown
Longitude
Unknown
Altitude
Unknown
Speed
Unknown
Apparent Right ascension
Unknown
Apparent Declination
Unknown
Sunlit
N/A
Visualization observer readout
Local Sidereal Time
11:42:03
Azimuth
Unknown
Elevation
Unknown
Doppler factor
Unknown
Orbital elements
Apogee altitude
900.363 km
Perigee altitude
833.72 km
Semi-major axis
7,245.179 km
Eccentricity
0.0046
Inclination
98.7898°
RAAN
258.3609°
Arg. of periapsis
22.2447°
True anomaly
32.80752°
Mean anomaly
32.5228°
Eccentric anomaly
32.66502°
Mean motion
3.51941 °/min
Orbital period
102.29 mins
BSTAR
0.0001343
Loading maneuver chart data...
Computing Atmospheric mass density...

Documentation

Showing up to 5 results
|